Theta_e
313 313 314 314 314 315 315 315 316 316 316 316 316 316 315 316 315 302 292 301 305 312 312 305 304 298 298 296 298 304 296 293 295 297 300 300 298 295 295 296 295 295 295 297 298
313 313 313 313 314 314 314 315 315 315 315 315 316 315 315 314 305 294 304 309 311 312 303 301 298 296 291 293 297 300 294 296 299 294 294 296 296 295 294 292 292 291 293 295 296
313 313 313 313 313 314 314 314 314 314 315 315 315 314 314 310 296 294 307 308 310 309 304 302 300 296 291 294 297 298 295 297 294 293 292 293 295 294 294 291 294 293 292 293 292
313 313 313 314 314 314 314 314 314 314 314 313 313 313 313 301 284 295 305 307 307 304 301 299 297 293 294 292 297 292 296 297 296 293 292 292 290 293 293 296 297 296 295 293 292
314 314 314 314 315 315 314 314 314 314 313 312 313 312 300 286 287 295 307 301 300 299 297 295 294 297 295 295 295 294 294 292 291 291 290 290 290 291 291 295 290 294 294 293 293
315 315 315 315 316 316 315 314 313 313 312 311 312 311 291 282 293 294 295 296 296 295 295 295 293 295 295 296 295 293 292 292 291 291 290 288 289 288 293 295 293 292 292 293 293
316 316 315 316 316 317 315 313 312 311 311 310 310 305 289 287 291 292 295 293 294 294 294 294 294 293 293 291 293 292 289 290 290 289 288 286 289 286 293 292 293 294 291 293 294
317 316 316 316 317 317 316 313 311 310 309 309 311 296 284 292 291 292 292 293 295 295 295 295 295 294 293 291 289 288 288 286 290 288 287 289 288 293 288 289 290 290 289 289 292
317 316 317 317 317 317 316 314 312 307 307 308 294 287 284 298 290 291 290 291 292 293 293 295 294 291 290 286 284 285 282 284 288 288 286 286 286 292 286 286 287 287 286 288 288
317 317 317 317 317 317 313 312 307 304 301 297 292 284 287 285 291 291 290 292 291 290 290 290 288 285 285 285 282 281 281 284 284 286 284 283 283 288 290 286 285 286 286 286 288
315 315 315 315 317 317 303 294 290 289 290 286 285 285 287 289 291 290 292 290 289 287 281 284 280 279 284 285 284 283 282 281 283 285 283 282 283 287 289 285 285 287 287 287 288
313 313 313 313 316 314 296 290 287 289 285 291 290 288 289 289 285 288 292 285 285 281 283 280 277 282 283 284 283 282 280 280 283 284 283 282 282 287 289 288 288 289 289 289 290
309 310 310 311 315 299 293 292 297 294 283 288 289 288 287 288 285 285 289 286 282 281 281 278 280 284 283 280 281 279 280 279 281 284 282 280 280 283 287 287 289 291 292 291 291
306 307 308 309 307 301 294 297 297 294 276 285 284 287 288 289 283 289 290 286 282 280 281 279 281 282 280 280 281 277 281 282 281 279 275 280 275 281 287 288 288 289 287 289 289
303 304 304 306 304 300 298 297 297 292 273 286 284 290 289 284 285 285 288 285 281 280 280 278 278 278 279 279 282 278 281 280 279 277 275 275 275 278 284 286 289 288 288 288 288
301 302 303 300 303 302 298 298 297 284 273 279 283 282 281 283 284 286 285 287 285 281 280 279 280 279 279 280 280 282 280 280 278 276 270 276 277 275 283 286 288 287 288 288 288
300 300 298 298 298 300 300 299 285 282 284 279 278 282 281 280 281 282 281 279 277 271 274 277 278 278 281 278 279 279 276 272 270 267 271 276 275 279 284 287 288 288 289 288 287
299 300 296 295 298 304 301 290 280 285 279 284 281 280 278 280 279 280 278 275 279 278 272 273 272 277 280 278 277 277 276 273 268 271 275 276 275 281 287 289 289 289 289 288 287
299 290 290 293 298 301 294 283 282 285 289 283 281 278 272 279 279 278 277 276 279 280 276 271 275 278 279 278 278 277 275 278 274 269 271 275 278 284 287 286 286 286 286 287 288
292 287 287 293 297 297 286 283 282 290 289 284 282 281 272 273 277 277 277 279 280 282 279 279 274 277 278 278 278 277 279 274 273 266 266 275 275 278 283 285 285 285 285 285 286
288 282 288 298 298 289 280 282 283 290 293 289 287 284 282 280 278 277 279 280 282 281 281 276 277 274 276 274 275 275 274 274 274 275 271 271 276 282 284 286 285 285 286 286 286
286 273 289 295 283 285 281 281 288 286 289 290 289 290 288 286 280 283 282 283 285 284 281 283 279 271 272 275 277 276 277 277 272 271 274 275 277 284 284 284 285 286 287 287 286
282 278 287 290 274 279 283 284 285 284 284 284 286 289 291 288 283 282 282 285 286 284 283 283 279 269 271 273 274 271 276 278 277 276 272 272 277 284 284 285 284 285 285 287 287
282 274 273 284 279 279 277 280 281 286 285 286 285 287 285 285 289 284 285 286 284 285 290 289 281 279 275 274 273 268 270 277 275 269 277 278 279 281 281 283 284 286 285 287 287
282 277 275 265 271 279 279 278 277 277 281 284 282 283 282 279 282 282 286 282 283 287 284 284 277 280 283 280 276 276 270 274 275 279 275 281 279 282 284 285 285 286 286 286 287
278 277 280 272 273 274 274 275 275 277 279 277 279 280 281 280 281 280 284 286 286 283 281 282 280 278 279 283 281 279 280 274 277 278 279 280 278 282 285 284 284 285 286 286 287
284 284 279 277 271 269 272 275 275 277 278 280 279 277 277 280 283 283 283 285 285 283 281 278 278 276 276 281 280 274 279 280 279 278 279 276 281 284 284 285 287 288 288 288 288
Wind_Speed
15 15 15 14 13 14 13 13 12 12 13 13 12 12 11 13 13 3 5 3 3 2 2 3 0 1 2 2 3 4 2 5 6 6 7 2 4 1 1 6 1 1 5 3 16
14 14 15 15 15 14 14 14 13 13 13 13 13 11 11 12 4 8 4 2 3 3 4 3 2 5 2 3 3 5 5 9 5 2 4 5 3 6 5 3 3 1 3 5 16
14 14 14 14 15 16 15 15 13 13 13 12 12 10 10 7 4 5 3 4 4 3 2 1 2 5 2 3 4 5 6 3 2 1 2 4 3 3 6 5 9 13 8 10 8
14 15 17 17 17 16 16 16 16 13 13 12 10 9 9 1 6 1 2 5 3 5 2 2 4 6 3 4 5 3 4 3 1 1 3 3 6 5 7 7 4 9 17 14 16
15 16 16 16 18 19 18 18 17 14 12 10 7 5 2 1 10 1 3 3 2 5 4 3 4 2 7 4 2 5 3 2 4 4 6 3 8 8 7 10 2 7 12 18 16
16 18 18 18 19 20 20 18 17 15 11 8 5 1 2 4 2 2 4 1 1 3 4 6 3 4 4 4 9 5 4 6 6 6 4 5 5 2 8 14 10 7 14 15 16
15 15 17 20 22 22 21 19 16 15 11 6 3 2 1 13 2 0 2 2 2 2 3 3 4 1 4 2 4 2 3 5 8 5 5 3 11 15 12 6 12 13 12 16 19
13 15 17 19 20 22 22 18 14 11 8 6 6 2 8 1 1 0 2 1 2 3 2 1 2 3 2 3 2 4 1 2 1 8 3 5 16 4 0 10 12 12 10 11 14
13 15 18 19 21 23 22 17 7 4 4 6 3 3 10 0 2 2 1 2 1 2 2 1 2 3 1 2 2 1 6 5 5 7 4 6 11 7 4 5 10 10 9 10 10
14 15 18 20 21 23 22 7 4 3 2 1 2 3 2 3 1 1 1 1 1 2 2 1 2 3 1 4 7 6 6 6 5 6 4 5 23 17 14 6 11 10 10 11 13
17 18 21 21 21 23 11 3 6 3 2 9 7 6 3 1 1 1 2 3 2 2 5 2 3 11 14 9 2 3 3 4 3 3 3 10 19 19 15 9 12 16 15 15 17
18 19 21 22 20 16 4 5 1 1 11 8 9 6 1 4 2 4 4 5 5 7 5 3 9 8 2 5 6 4 4 6 4 2 3 6 19 19 17 15 17 20 18 20 16
21 20 23 24 24 4 2 1 4 4 4 8 5 5 5 7 6 7 11 6 5 6 8 8 4 3 5 4 5 4 6 4 5 3 4 6 13 8 8 9 11 16 17 15 19
23 23 23 27 3 2 2 3 3 2 4 8 4 3 3 3 4 2 6 5 4 11 7 7 3 5 4 5 7 5 4 2 2 1 5 1 10 8 8 12 7 10 10 14 13
22 23 22 20 9 4 3 6 5 2 6 4 3 2 4 5 4 2 2 2 6 6 7 8 6 5 4 5 7 5 2 3 2 2 4 2 4 11 5 9 12 8 10 10 9
23 23 23 10 7 3 5 5 2 3 13 5 5 6 4 4 2 3 2 2 2 5 0 3 1 3 4 3 2 5 5 7 5 3 3 9 8 5 6 7 5 3 5 6 8
23 23 19 7 6 2 3 3 3 8 4 5 6 6 5 7 5 6 6 7 7 6 5 0 4 2 3 5 4 3 6 1 4 2 10 3 5 6 11 10 6 3 7 6 6
26 26 10 9 10 8 3 0 12 7 9 1 3 3 6 7 5 8 6 4 8 2 4 8 6 10 6 6 7 7 7 7 9 6 4 2 10 10 11 9 9 8 6 5 6
26 4 6 7 9 6 6 14 13 11 9 10 3 5 5 4 5 5 9 7 10 16 12 7 6 2 2 1 3 7 7 3 5 1 4 6 9 11 10 11 5 7 5 8 8
6 8 8 7 6 7 10 28 12 10 2 4 11 9 9 5 8 9 10 6 7 15 2 8 2 1 2 2 2 5 1 3 2 2 5 6 7 9 5 6 6 6 10 8 6
2 5 5 8 4 7 17 19 16 18 6 13 16 9 8 8 7 5 6 5 7 5 3 5 5 0 2 9 12 5 4 2 3 5 6 2 9 9 8 7 9 11 8 8 8
3 3 4 3 7 5 16 8 5 8 9 23 3 13 17 11 7 14 13 9 7 7 9 5 5 6 10 1 1 2 6 7 7 7 5 3 13 2 5 2 6 3 6 6 7
4 4 3 4 6 9 8 10 5 15 8 5 9 12 12 15 8 9 6 4 9 11 11 6 4 1 6 5 5 5 7 5 4 3 10 8 9 1 2 3 2 3 1 4 7
3 5 6 3 3 14 17 10 15 5 7 8 7 7 5 9 15 6 7 3 3 5 13 9 3 6 11 7 6 5 6 13 7 4 9 19 8 3 2 4 5 5 3 6 7
3 3 3 4 5 7 9 9 21 15 4 5 6 16 19 9 15 17 15 4 2 7 0 9 10 15 23 8 6 5 5 10 18 25 10 24 15 9 8 9 7 6 7 6 8
3 4 4 3 2 9 4 4 15 14 6 12 8 15 15 7 12 14 6 6 14 5 7 3 7 3 15 18 8 12 11 11 21 20 19 21 17 2 6 7 7 8 7 7 9
3 3 2 7 3 2 5 9 13 17 7 5 11 14 10 14 7 5 11 11 9 3 12 11 8 7 6 7 9 5 25 18 12 12 16 18 19 5 10 14 15 15 9 12 12
Wind_Direction
7 3 355 349 345 339 338 335 333 330 320 317 317 314 316 313 306 227 239 209 198 278 281 271 183 178 124 216 224 149 170 232 230 198 244 227 180 33 199 127 164 117 159 281 142
4 358 349 343 339 336 334 329 330 324 316 315 315 317 322 322 266 238 176 213 267 240 201 163 183 154 185 220 213 161 182 220 212 217 261 284 215 177 151 155 206 170 10 108 142
357 352 347 342 335 332 328 325 322 317 312 315 316 311 320 332 294 240 162 241 236 213 179 93 271 184 202 173 223 191 217 205 266 283 274 272 280 219 155 226 212 198 167 157 159
355 350 344 340 335 329 325 319 314 313 311 313 310 308 317 265 278 135 297 276 218 161 161 125 254 166 159 205 217 232 251 244 268 267 307 268 322 281 203 227 248 199 166 166 177
349 344 341 336 331 328 323 314 308 304 302 304 295 299 344 304 250 171 336 303 192 154 181 137 257 252 164 189 211 220 261 256 239 247 249 287 249 235 253 247 193 150 167 182 186
342 338 335 332 330 329 323 315 309 301 299 299 283 320 141 246 138 11 338 62 140 222 205 149 248 313 280 224 165 185 211 256 239 238 232 232 255 142 223 228 226 180 192 194 194
332 330 328 329 328 328 323 314 307 298 291 270 233 175 209 240 133 159 7 188 216 219 218 168 153 322 331 287 337 171 253 283 220 208 239 151 280 231 227 198 219 217 205 202 206
326 325 326 326 325 325 320 311 303 293 270 231 184 150 245 149 188 44 319 234 261 255 249 158 149 225 224 196 29 289 117 266 199 147 203 143 264 226 42 189 229 231 216 216 214
323 327 328 328 329 328 323 312 285 232 224 168 123 141 267 166 177 171 155 184 335 319 266 265 176 190 140 151 345 191 275 219 301 200 138 170 268 262 102 183 244 241 235 218 227
332 332 330 329 333 331 332 348 102 143 159 192 309 23 262 241 158 135 81 123 150 115 55 173 66 164 229 156 221 204 219 251 232 206 197 209 263 268 269 248 243 244 236 231 221
356 345 336 331 330 333 346 353 12 353 31 205 205 216 159 138 52 230 156 127 116 102 182 245 143 212 205 200 177 146 221 262 277 203 211 228 258 261 272 250 251 240 232 231 229
355 349 341 335 327 329 24 66 171 217 302 233 244 272 164 165 172 220 138 153 156 195 128 45 237 237 244 207 228 230 249 259 259 145 206 293 273 274 265 248 231 240 230 228 221
343 343 339 335 321 52 85 208 125 124 250 289 198 185 196 160 218 213 156 167 177 168 195 176 223 145 166 179 187 228 206 218 235 312 227 308 273 257 259 249 252 242 241 225 218
341 340 337 336 298 291 238 178 155 144 39 263 224 238 122 180 248 134 202 161 186 204 174 229 229 176 172 212 164 247 206 159 169 115 247 166 286 281 276 277 253 247 223 228 215
334 335 335 330 297 271 171 145 128 95 320 223 192 147 143 174 135 228 184 98 180 182 123 238 173 175 183 207 167 226 117 141 108 181 357 236 282 271 271 277 263 271 237 223 213
331 332 328 332 309 250 134 122 94 60 246 247 147 174 146 194 201 128 149 351 121 131 121 252 340 200 199 79 34 131 69 42 47 67 297 198 187 236 227 237 286 294 303 232 216
319 319 320 302 266 35 128 113 296 219 333 257 203 167 193 187 196 170 168 177 169 103 222 193 215 188 151 94 21 96 99 336 345 354 231 151 183 259 267 248 231 255 271 246 209
318 316 297 266 263 256 242 308 220 223 239 301 143 120 195 158 230 177 149 218 236 134 119 163 286 168 180 198 177 184 172 168 204 204 251 36 235 254 242 282 253 258 235 195 189
315 289 277 252 242 216 215 227 220 207 188 157 134 159 282 248 175 148 196 215 208 180 178 138 263 144 123 135 143 194 206 199 102 65 37 225 280 295 259 255 258 233 187 214 212
314 299 265 270 235 197 234 230 225 218 154 154 191 178 201 219 178 176 179 208 230 193 158 202 97 242 133 146 231 176 223 110 355 182 247 273 265 235 274 246 225 233 227 233 244
306 303 270 329 189 205 216 229 236 241 237 238 235 204 206 168 200 211 211 258 212 171 130 138 123 223 80 205 182 155 205 199 134 164 179 272 259 220 235 208 212 232 232 221 223
232 245 263 37 251 232 230 219 264 270 240 243 282 223 222 211 212 216 216 230 143 148 160 217 147 172 206 264 358 243 189 164 138 226 231 178 255 275 263 179 207 257 239 226 227
263 248 298 95 270 283 275 263 272 273 292 280 243 245 256 243 240 197 213 257 162 153 172 191 204 80 342 353 353 207 207 206 115 88 216 146 254 299 187 85 66 146 169 194 204
288 288 318 176 220 264 292 274 264 283 290 267 285 312 290 246 235 242 229 249 135 181 175 118 197 203 217 192 137 198 212 196 159 161 215 231 214 336 284 219 200 206 182 212 215
286 276 211 277 283 270 279 294 289 285 320 310 290 232 255 256 258 244 238 163 118 181 58 158 209 205 229 185 174 196 190 203 206 227 194 249 224 226 243 235 247 267 281 246 232
297 348 312 274 314 311 330 303 278 318 342 277 270 328 296 288 263 276 317 224 230 170 175 198 233 159 252 230 214 241 253 210 224 245 254 263 269 17 281 309 320 296 273 266 260
202 243 230 297 315 304 277 294 275 313 277 286 334 328 320 318 7 315 271 275 284 261 178 171 169 167 234 193 233 219 229 228 224 207 222 241 251 214 262 263 257 259 272 259 251